TimeCDT,TemperatureF,Dew PointF,Humidity,Sea Level PressureIn,VisibilityMPH,Wind Direction,Wind SpeedMPH,Gust SpeedMPH,PrecipitationIn,Events,Conditions,WindDirDegrees,DateUTC
12:56 AM,75.0,71.1,87,29.98,9.0,Calm,Calm,-,N/A,,Clear,0,2013-08-05 05:56:00
1:56 AM,75.0,70.0,84,29.96,8.0,West,3.5,-,N/A,,Clear,260,2013-08-05 06:56:00
2:56 AM,73.9,70.0,87,29.95,7.0,Calm,Calm,-,N/A,,Clear,0,2013-08-05 07:56:00
3:56 AM,73.9,70.0,87,29.95,7.0,WNW,4.6,-,N/A,,Clear,300,2013-08-05 08:56:00
4:56 AM,73.9,70.0,87,29.95,7.0,NW,4.6,-,N/A,,Clear,320,2013-08-05 09:56:00
5:56 AM,75.0,71.1,87,29.97,7.0,NNW,5.8,-,N/A,,Partly Cloudy,330,2013-08-05 10:56:00
6:56 AM,75.9,72.0,87,29.99,7.0,NNW,3.5,-,N/A,,Scattered Clouds,330,2013-08-05 11:56:00
7:56 AM,79.0,73.0,82,29.99,8.0,NNW,5.8,-,N/A,,Scattered Clouds,340,2013-08-05 12:56:00
8:56 AM,82.0,73.9,76,29.99,8.0,NW,4.6,-,N/A,,Scattered Clouds,320,2013-08-05 13:56:00
9:56 AM,87.1,73.9,65,30.00,10.0,NE,3.5,-,N/A,,Mostly Cloudy,40,2013-08-05 14:56:00
10:56 AM,88.0,73.0,61,30.00,10.0,Calm,Calm,-,0.00,Rain,Light Rain,0,2013-08-05 15:56:00
11:56 AM,90.0,73.0,57,29.99,10.0,NNE,4.6,-,N/A,,Mostly Cloudy,20,2013-08-05 16:56:00
12:56 PM,88.0,73.0,61,29.97,10.0,NW,8.1,-,N/A,,Mostly Cloudy,310,2013-08-05 17:56:00
1:56 PM,93.0,72.0,50,29.94,10.0,NNW,6.9,-,N/A,,Mostly Cloudy,330,2013-08-05 18:56:00
2:56 PM,93.0,71.1,49,29.92,10.0,NNW,6.9,-,N/A,,Mostly Cloudy,330,2013-08-05 19:56:00
3:56 PM,93.0,72.0,50,29.91,10.0,NNW,4.6,-,N/A,,Scattered Clouds,340,2013-08-05 20:56:00
4:56 PM,93.0,71.1,49,29.91,10.0,North,8.1,-,N/A,,Scattered Clouds,350,2013-08-05 21:56:00
5:56 PM,91.0,70.0,50,29.91,10.0,NW,4.6,-,N/A,,Scattered Clouds,320,2013-08-05 22:56:00
6:56 PM,86.0,71.1,61,29.93,10.0,NNW,3.5,-,N/A,,Mostly Cloudy,330,2013-08-05 23:56:00
7:56 PM,82.0,71.1,69,29.94,10.0,Calm,Calm,-,N/A,,Mostly Cloudy,0,2013-08-06 00:56:00
8:56 PM,81.0,72.0,74,29.94,10.0,WNW,4.6,-,N/A,,Mostly Cloudy,300,2013-08-06 01:56:00
9:56 PM,80.1,72.0,76,29.95,10.0,West,3.5,-,N/A,,Mostly Cloudy,260,2013-08-06 02:56:00
10:56 PM,79.0,73.9,84,29.94,8.0,Calm,Calm,-,N/A,,Mostly Cloudy,0,2013-08-06 03:56:00
11:56 PM,78.1,73.9,87,29.93,7.0,Calm,Calm,-,N/A,,Mostly Cloudy,0,2013-08-06 04:56:00